SCP
-0 -0 -0 -0 -0 -0 0 0 0 0 0 0 0 0 0 0 0 0 0 0 0 0 0 0 0 0 0 0 0 0 0 0 -0 0 0 0 0 0 0 0 0 0 0 0
-0 -0 -0 -0 -0 -0 0 0 0 0 0 0 0 0 0 0 0 0 0 0 0 0 0 0 0 0 0 0 0 0 0 0 -0 0 0 0 0 0 0 0 0 0 0 0
-0 -0 -0 -0 -0 -0 0 0 0 0 0 0 0 0 0 0 0 0 0 0 0 0 0 0 0 0 0 0 0 0 0 0 0 0 0 0 0 0 0 0 0 0 0 0
-0 -0 -0 -0 -0 -0 0 0 0 0 0 0 0 0 0 0 0 0 0 0 0 0 0 0 0 0 0 0 0 0 0 0 0 0 0 0 0 0 0 0 0 0 0 0
0 0 -0 -0 -0 -0 0 0 0 0 0 0 0 0 0 0 0 0 0 0 0 0 0 0 0 0 0 0 0 0 0 0 0 0 0 0 0 0 0 0 0 0 -0 -0
0 0 0 0 -0 0 0 0 0 0 0 0 0 0 0 0 0 0 0 0 0 0 0 0 0 0 0 0 0 0 0 0 0 0 0 0 0 0 0 0 0 0 0 0
0 0 0 0 0 0 0 0 0 0 0 0 0 0 0 0 0 0 0 0 0 0 0 0 0 0 0 0 0 0 0 0 0 0 0 0 0 0 0 0 0 0 0 0
0 0 0 0 0 0 0 0 0 0 0 0 0 0 0 0 0 0 0 0 0 0 0 0 0 0 0 0 0 0 0 0 0 0 0 0 0 0 0 0 0 0 0 0
0 0 0 0 0 0 0 0 0 0 0 0 0 0 0 0 0 0 0 0 0 0 0 0 0 0 0 0 0 0 0 0 0 0 0 0 0 0 0 0 0 0 0 0
0 0 0 0 0 0 0 0 0 0 0 0 0 0 0 0 0 0 0 0 0 0 0 0 0 0 0 0 0 0 0 0 0 0 0 0 0 0 0 0 0 0 0 0
0 0 0 0 0 0 0 0 0 0 0 0 0 0 0 0 0 0 0 0 0 0 0 0 0 0 0 0 0 0 0 0 0 0 0 0 0 0 0 0 0 0 0 0
0 0 0 0 0 0 0 0 0 0 0 0 0 0 0 0 0 0 0 0 0 0 0 0 0 0 0 0 0 0 0 0 0 0 0 0 0 0 0 0 0 0 0 0
0 0 0 0 0 0 0 0 0 0 0 0 0 0 0 0 0 0 0 0 0 0 0 0 0 0 0 0 0 0 0 0 0 0 0 0 0 0 0 0 0 0 0 0
0 0 0 0 0 0 0 0 0 0 0 0 0 0 0 0 0 0 0 0 0 0 0 0 0 0 0 0 0 0 0 0 0 0 0 0 0 0 0 0 0 0 0 0
0 0 0 0 0 0 0 0 0 0 0 0 0 -0 0 0 0 0 0 0 0 0 0 0 0 0 0 0 0 0 0 0 0 0 0 0 0 0 0 0 0 0 0 0
0 0 0 0 0 0 0 0 0 0 0 0 0 0 0 0 0 0 0 0 0 0 0 0 0 0 0 0 0 0 0 0 0 0 0 0 0 0 0 0 0 0 0 0
0 0 0 0 0 0 0 0 0 0 0 0 0 0 0 0 0 0 0 0 0 0 0 0 0 0 0 0 0 0 0 0 0 0 0 0 0 0 0 0 0 0 0 0
0 0 0 0 0 0 0 0 0 0 0 0 0 0 0 0 0 0 0 0 0 0 0 0 0 0 0 0 0 0 0 0 0 0 0 0 0 0 0 0 0 0 0 0
0 0 0 0 0 0 0 0 0 0 0 0 0 0 0 0 0 0 0 0 0 0 0 0 0 0 0 0 0 0 0 0 0 0 0 0 0 0 0 0 0 0 0 0
0 0 0 0 0 0 0 0 0 0 0 0 0 0 0 0 0 0 0 0 0 0 0 0 0 0 0 0 0 0 0 0 0 0 0 0 0 0 0 0 0 0 0 0
0 0 0 0 0 0 0 0 0 0 0 0 0 0 0 0 0 0 0 0 0 0 0 0 0 0 0 0 0 0 0 0 0 0 0 0 0 0 0 0 0 0 0 0
0 0 0 0 0 0 0 0 0 0 0 0 0 0 0 0 0 0 0 0 0 0 0 0 0 0 0 0 0 0 0 0 0 0 0 0 0 0 0 0 0 0 0 0
0 0 0 0 0 0 0 0 0 0 0 0 0 0 0 0 0 0 0 0 0 0 0 0 0 0 0 0 0 0 0 0 0 0 0 0 0 0 0 0 0 0 0 0
0 0 0 0 0 0 0 0 0 0 0 0 0 0 0 0 0 0 0 0 0 0 0 0 0 0 0 0 0 0 0 0 0 0 0 0 0 0 0 0 0 0 0 0
0 0 0 0 0 0 0 0 0 0 0 0 0 0 0 0 0 0 0 0 0 0 0 0 0 0 0 0 0 0 0 0 0 0 0 0 0 0 0 0 0 0 0 0
0 0 0 0 0 0 0 0 0 0 0 0 0 0 0 0 0 0 0 0 0 0 0 0 0 0 0 0 -0 0 0 0 0 0 0 0 0 0 0 0 0 0 0 0
0 -0 0 0 0 0 0 0 0 0 0 0 0 0 0 0 0 0 0 0 0 0 0 0 0 0 -0 -0 -0 0 0 0 0 0 0 0 0 0 0 0 0 0 0 0
Wind_Speed_500mb
59 62 63 63 56 43 16 7 6 10 5 10 6 3 3 12 9 17 12 8 6 4 7 10 6 6 4 33 4 6 5 8 3 11 9 4 3 5 7 9 4 1 5 11
58 62 61 60 57 46 30 7 4 15 6 6 7 12 7 5 13 10 8 10 10 9 6 7 3 5 5 30 9 4 6 5 7 18 13 10 10 6 7 8 6 5 8 11
57 59 62 58 55 42 24 7 4 9 13 10 5 8 9 9 12 10 11 7 9 9 11 10 2 9 4 17 7 17 8 6 11 11 14 7 7 6 3 7 6 4 11 14
57 56 59 59 54 40 19 14 5 6 5 9 7 2 3 8 10 9 24 8 8 3 3 1 1 3 10 8 11 8 9 2 8 10 11 5 9 11 6 7 9 10 11 11
54 55 55 56 54 43 28 11 10 9 6 8 3 8 7 8 12 6 5 7 4 3 2 9 8 6 7 11 3 5 4 5 7 8 7 12 9 17 14 13 6 14 11 13
46 49 50 51 51 46 23 22 15 8 11 8 4 3 5 7 5 3 8 3 1 4 6 18 22 19 17 16 12 9 7 11 6 9 6 9 10 15 12 6 7 8 8 8
40 41 42 42 43 42 33 33 16 9 6 3 2 7 7 6 9 4 4 6 2 6 27 17 20 28 23 16 18 21 13 12 7 7 5 2 14 7 5 9 4 7 7 8
37 34 34 33 32 31 24 28 19 10 5 6 9 8 6 13 14 4 7 3 15 21 7 7 11 11 14 5 12 2 5 10 6 7 7 10 5 2 4 8 12 9 7 3
36 32 29 27 26 25 23 18 19 10 5 7 4 6 7 3 6 11 5 10 19 9 8 7 5 6 4 10 13 10 11 8 7 5 8 12 12 6 6 4 9 16 18 14
38 34 31 27 23 21 21 16 18 11 10 11 8 7 5 7 2 4 8 15 9 11 4 5 7 9 7 5 4 5 5 5 8 5 7 12 12 15 4 9 13 2 8 7
41 39 36 32 26 23 18 17 16 14 11 32 37 23 12 12 6 5 7 10 5 7 6 5 5 5 5 5 7 6 8 6 8 5 4 9 6 5 2 8 5 2 5 9
46 43 38 35 32 28 24 20 19 23 21 25 41 51 52 52 51 37 11 6 5 7 7 1 4 2 2 1 7 6 7 10 6 14 10 9 5 4 1 3 3 3 6 9
41 45 44 39 34 32 31 28 23 25 19 39 34 10 5 17 25 24 19 16 18 10 8 12 4 4 7 5 10 6 6 5 2 4 5 12 14 6 13 10 7 12 17 22
38 38 39 43 37 32 34 32 24 19 12 10 15 10 17 18 32 29 33 17 16 8 6 7 6 5 15 7 8 8 10 3 5 12 25 25 43 45 44 22 25 28 28 28
36 35 36 38 35 31 34 36 31 25 18 8 29 64 39 34 35 22 22 34 38 29 8 5 7 8 6 3 1 8 15 13 8 15 46 27 44 38 31 44 31 34 35 35
31 34 34 33 31 27 14 12 26 31 27 9 7 17 24 24 32 35 35 35 40 29 17 13 12 14 15 7 7 15 27 38 44 39 54 44 53 53 64 63 68 66 45 39
26 27 27 27 26 30 23 9 10 20 20 7 12 15 9 8 18 11 19 31 28 25 16 15 13 18 23 6 16 24 62 70 65 61 59 55 59 49 42 41 34 35 45 44
23 20 17 16 22 29 37 30 22 18 13 9 5 9 12 3 5 4 2 12 19 15 11 9 9 9 10 9 23 47 54 51 45 38 42 47 45 47 48 47 45 46 48 52
17 14 7 6 10 14 19 35 37 29 20 8 11 6 6 5 1 2 1 3 1 5 6 10 15 6 10 13 15 21 23 23 42 52 41 29 24 22 28 31 34 41 60 68
7 18 7 9 11 10 11 14 15 18 14 15 9 10 7 7 8 7 9 5 1 1 8 12 6 8 3 8 5 8 14 18 24 21 32 41 42 41 40 38 35 34 36 49
13 9 7 7 16 15 11 9 10 14 7 16 24 43 18 8 3 3 6 2 2 2 8 7 5 6 3 12 17 15 14 20 32 40 48 55 61 68 72 72 70 64 51 39
12 9 14 13 14 10 8 8 9 9 11 12 12 16 29 21 19 6 10 7 3 11 6 4 6 5 11 12 4 10 21 34 43 53 61 65 65 67 69 66 64 64 67 70
16 13 16 12 11 11 13 14 8 8 11 15 14 7 11 16 24 12 7 9 10 4 3 7 6 7 12 5 14 26 33 41 53 61 61 61 65 65 63 69 67 72 69 66
12 10 9 9 8 9 10 7 6 13 9 15 7 8 19 13 10 6 9 7 3 3 3 8 5 19 8 13 23 31 43 54 63 61 54 56 60 66 63 61 66 66 56 59
9 11 9 12 17 12 5 10 12 17 14 15 5 6 8 3 6 4 3 4 7 9 8 5 17 15 9 23 30 36 44 56 64 52 55 54 61 58 64 58 55 55 50 52
9 13 8 6 2 8 14 20 29 13 8 5 5 4 6 5 4 6 11 7 10 6 6 11 17 8 16 28 36 43 49 59 64 47 53 61 63 51 49 50 42 37 32 36
9 10 14 26 17 9 14 11 5 4 2 3 3 7 10 6 4 5 8 8 6 11 9 6 8 20 29 37 44 50 54 63 56 43 54 65 58 54 50 49 41 30 24 23
Wind_Direction_500mb
2 4 4 2 3 7 19 45 54 359 18 32 44 72 256 327 340 17 40 84 88 83 39 33 74 65 263 335 283 47 32 127 247 237 292 298 346 59 115 108 247 99 143 270
359 3 5 4 4 5 11 38 69 19 61 77 336 318 308 356 9 25 31 31 45 31 62 76 79 356 332 16 53 120 165 17 15 352 354 357 43 337 98 96 82 198 131 262
357 360 3 6 5 4 8 5 36 44 75 72 107 3 354 355 26 49 60 42 68 62 32 10 139 356 323 351 65 43 104 111 160 180 212 182 309 311 76 106 90 207 230 287
356 357 360 4 8 8 9 27 50 33 341 5 32 22 329 349 8 31 31 38 60 106 115 29 284 272 321 346 360 44 92 223 189 247 230 218 236 240 274 233 201 168 250 234
353 356 359 2 7 13 37 43 13 358 7 328 10 357 8 9 325 20 357 88 327 50 191 204 228 197 208 237 326 100 32 241 177 271 270 226 264 254 228 238 211 263 276 278
342 349 356 0 5 16 37 29 8 356 354 356 63 283 313 335 323 8 49 292 196 292 295 305 271 252 254 235 194 176 161 142 110 264 329 326 298 233 195 189 185 200 190 238
329 337 348 359 5 10 19 16 5 1 294 9 258 329 331 325 340 263 307 19 32 305 315 288 270 269 276 277 259 195 153 129 134 225 4 235 241 286 232 219 232 233 241 177
313 322 331 345 357 2 356 8 11 352 307 289 309 333 319 327 320 277 267 282 330 321 328 37 8 336 6 350 32 210 174 136 136 164 182 286 297 77 101 168 259 198 243 200
299 303 316 323 337 346 345 331 355 341 320 256 293 325 326 283 314 335 301 323 335 330 81 76 141 257 251 314 343 84 77 72 121 120 158 200 236 277 249 161 261 214 208 204
282 289 293 303 310 325 334 317 329 330 288 273 244 206 251 280 212 235 310 338 326 1 81 125 173 241 212 258 264 318 359 24 177 167 231 292 261 297 42 145 239 167 194 233
275 275 279 284 286 292 308 310 303 326 278 279 270 266 222 212 203 170 336 352 322 23 62 137 224 190 257 318 243 200 197 157 212 122 180 263 337 338 248 234 301 245 337 327
272 270 272 271 270 272 279 289 289 298 281 274 283 279 268 263 268 261 257 239 229 203 95 186 114 280 8 93 289 310 275 189 196 176 218 243 280 161 344 325 300 344 326 310
273 266 265 263 262 259 261 269 286 302 296 299 282 293 221 229 238 248 204 221 217 199 190 157 156 227 133 208 244 275 300 166 193 9 266 239 215 267 254 249 267 302 308 311
268 266 261 261 256 250 251 257 266 281 288 280 285 280 242 255 254 289 226 202 173 194 214 185 146 176 188 216 243 220 214 131 215 261 276 266 269 276 269 268 279 295 286 281
268 263 258 259 256 245 245 254 256 256 233 270 296 297 288 256 258 212 226 232 242 244 197 155 212 195 151 214 16 258 193 208 188 248 267 257 276 287 266 285 267 295 269 275
270 265 259 253 248 235 242 276 254 236 223 269 309 298 279 267 267 258 253 235 235 215 198 206 218 203 181 181 233 254 251 253 256 251 280 285 289 289 285 276 268 276 253 256
283 273 264 247 229 198 183 207 202 184 184 235 293 282 266 266 282 228 224 234 209 211 204 207 198 196 193 171 245 265 275 278 282 282 284 284 289 290 302 294 275 254 258 257
287 287 262 245 217 210 214 206 176 176 205 229 255 271 309 253 262 217 172 190 199 211 211 180 177 158 195 246 240 262 270 283 290 291 296 298 297 294 298 298 277 277 259 264
296 285 144 148 178 198 217 214 221 215 226 237 200 225 257 321 14 308 184 163 163 210 210 219 160 187 223 231 257 276 293 287 283 290 295 299 310 317 305 301 293 288 270 267
225 142 160 198 199 186 177 194 190 205 223 242 243 232 258 7 22 37 2 350 246 247 246 141 168 248 109 30 57 90 73 47 29 25 358 347 339 336 331 327 318 310 298 285
167 179 220 190 174 174 182 183 193 188 233 213 231 225 239 259 144 244 302 227 232 250 254 167 226 265 175 118 110 90 56 17 350 337 326 319 312 306 302 296 293 292 291 281
196 214 178 183 189 201 185 198 184 207 223 206 193 218 209 220 224 168 219 197 146 245 150 154 254 244 162 154 126 4 343 330 325 324 317 311 305 300 297 291 288 285 281 272
188 238 183 183 197 218 199 191 196 211 206 197 193 198 175 181 190 196 171 203 227 124 184 225 224 179 166 93 350 332 330 333 331 325 323 319 315 312 302 295 295 289 276 267
209 222 213 203 199 227 203 199 179 203 198 156 273 214 183 185 166 215 188 218 102 247 242 236 218 182 140 347 336 324 332 340 335 328 323 317 319 315 315 307 301 285 285 279
243 234 212 217 231 240 237 249 243 248 281 282 234 207 194 173 199 189 126 147 238 205 226 223 179 176 318 338 338 335 332 335 331 325 325 327 324 325 310 312 310 298 288 277
239 238 253 271 297 257 248 256 256 268 245 226 220 171 174 178 145 166 216 175 214 235 206 173 182 233 325 333 336 334 331 330 328 323 323 324 327 322 325 327 319 306 305 291
240 240 257 273 287 271 331 309 46 4 335 204 179 209 188 117 160 240 183 205 219 164 171 202 265 298 314 331 333 330 330 328 325 325 326 332 334 331 333 328 338 326 316 320
Wind_Speed_850mb
59 62 63 63 56 43 16 7 6 10 5 10 6 3 3 12 9 17 12 8 6 4 7 10 6 6 4 33 4 6 5 8 3 11 9 4 3 5 7 9 4 1 5 11
58 62 61 60 57 46 30 7 4 15 6 6 7 12 7 5 13 10 8 10 10 9 6 7 3 5 5 30 9 4 6 5 7 18 13 10 10 6 7 8 6 5 8 11
57 59 62 58 55 42 24 7 4 9 13 10 5 8 9 9 12 10 11 7 9 9 11 10 2 9 4 17 7 17 8 6 11 11 14 7 7 6 3 7 6 4 11 14
57 56 59 59 54 40 19 14 5 6 5 9 7 2 3 8 10 9 24 8 8 3 3 1 1 3 10 8 11 8 9 2 8 10 11 5 9 11 6 7 9 10 11 11
54 55 55 56 54 43 28 11 10 9 6 8 3 8 7 8 12 6 5 7 4 3 2 9 8 6 7 11 3 5 4 5 7 8 7 12 9 17 14 13 6 14 11 13
46 49 50 51 51 46 23 22 15 8 11 8 4 3 5 7 5 3 8 3 1 4 6 18 22 19 17 16 12 9 7 11 6 9 6 9 10 15 12 6 7 8 8 8
40 41 42 42 43 42 33 33 16 9 6 3 2 7 7 6 9 4 4 6 2 6 27 17 20 28 23 16 18 21 13 12 7 7 5 2 14 7 5 9 4 7 7 8
37 34 34 33 32 31 24 28 19 10 5 6 9 8 6 13 14 4 7 3 15 21 7 7 11 11 14 5 12 2 5 10 6 7 7 10 5 2 4 8 12 9 7 3
36 32 29 27 26 25 23 18 19 10 5 7 4 6 7 3 6 11 5 10 19 9 8 7 5 6 4 10 13 10 11 8 7 5 8 12 12 6 6 4 9 16 18 14
38 34 31 27 23 21 21 16 18 11 10 11 8 7 5 7 2 4 8 15 9 11 4 5 7 9 7 5 4 5 5 5 8 5 7 12 12 15 4 9 13 2 8 7
41 39 36 32 26 23 18 17 16 14 11 32 37 23 12 12 6 5 7 10 5 7 6 5 5 5 5 5 7 6 8 6 8 5 4 9 6 5 2 8 5 2 5 9
46 43 38 35 32 28 24 20 19 23 21 25 41 51 52 52 51 37 11 6 5 7 7 1 4 2 2 1 7 6 7 10 6 14 10 9 5 4 1 3 3 3 6 9
41 45 44 39 34 32 31 28 23 25 19 39 34 10 5 17 25 24 19 16 18 10 8 12 4 4 7 5 10 6 6 5 2 4 5 12 14 6 13 10 7 12 17 22
38 38 39 43 37 32 34 32 24 19 12 10 15 10 17 18 32 29 33 17 16 8 6 7 6 5 15 7 8 8 10 3 5 12 25 25 43 45 44 22 25 28 28 28
36 35 36 38 35 31 34 36 31 25 18 8 29 64 39 34 35 22 22 34 38 29 8 5 7 8 6 3 1 8 15 13 8 15 46 27 44 38 31 44 31 34 35 35
31 34 34 33 31 27 14 12 26 31 27 9 7 17 24 24 32 35 35 35 40 29 17 13 12 14 15 7 7 15 27 38 44 39 54 44 53 53 64 63 68 66 45 39
26 27 27 27 26 30 23 9 10 20 20 7 12 15 9 8 18 11 19 31 28 25 16 15 13 18 23 6 16 24 62 70 65 61 59 55 59 49 42 41 34 35 45 44
23 20 17 16 22 29 37 30 22 18 13 9 5 9 12 3 5 4 2 12 19 15 11 9 9 9 10 9 23 47 54 51 45 38 42 47 45 47 48 47 45 46 48 52
17 14 7 6 10 14 19 35 37 29 20 8 11 6 6 5 1 2 1 3 1 5 6 10 15 6 10 13 15 21 23 23 42 52 41 29 24 22 28 31 34 41 60 68
7 18 7 9 11 10 11 14 15 18 14 15 9 10 7 7 8 7 9 5 1 1 8 12 6 8 3 8 5 8 14 18 24 21 32 41 42 41 40 38 35 34 36 49
13 9 7 7 16 15 11 9 10 14 7 16 24 43 18 8 3 3 6 2 2 2 8 7 5 6 3 12 17 15 14 20 32 40 48 55 61 68 72 72 70 64 51 39
12 9 14 13 14 10 8 8 9 9 11 12 12 16 29 21 19 6 10 7 3 11 6 4 6 5 11 12 4 10 21 34 43 53 61 65 65 67 69 66 64 64 67 70
16 13 16 12 11 11 13 14 8 8 11 15 14 7 11 16 24 12 7 9 10 4 3 7 6 7 12 5 14 26 33 41 53 61 61 61 65 65 63 69 67 72 69 66
12 10 9 9 8 9 10 7 6 13 9 15 7 8 19 13 10 6 9 7 3 3 3 8 5 19 8 13 23 31 43 54 63 61 54 56 60 66 63 61 66 66 56 59
9 11 9 12 17 12 5 10 12 17 14 15 5 6 8 3 6 4 3 4 7 9 8 5 17 15 9 23 30 36 44 56 64 52 55 54 61 58 64 58 55 55 50 52
9 13 8 6 2 8 14 20 29 13 8 5 5 4 6 5 4 6 11 7 10 6 6 11 17 8 16 28 36 43 49 59 64 47 53 61 63 51 49 50 42 37 32 36
9 10 14 26 17 9 14 11 5 4 2 3 3 7 10 6 4 5 8 8 6 11 9 6 8 20 29 37 44 50 54 63 56 43 54 65 58 54 50 49 41 30 24 23
Wind_Direction_850mb
2 4 4 2 3 7 19 45 54 359 18 32 44 72 256 327 340 17 40 84 88 83 39 33 74 65 263 335 283 47 32 127 247 237 292 298 346 59 115 108 247 99 143 270
359 3 5 4 4 5 11 38 69 19 61 77 336 318 308 356 9 25 31 31 45 31 62 76 79 356 332 16 53 120 165 17 15 352 354 357 43 337 98 96 82 198 131 262
357 360 3 6 5 4 8 5 36 44 75 72 107 3 354 355 26 49 60 42 68 62 32 10 139 356 323 351 65 43 104 111 160 180 212 182 309 311 76 106 90 207 230 287
356 357 360 4 8 8 9 27 50 33 341 5 32 22 329 349 8 31 31 38 60 106 115 29 284 272 321 346 360 44 92 223 189 247 230 218 236 240 274 233 201 168 250 234
353 356 359 2 7 13 37 43 13 358 7 328 10 357 8 9 325 20 357 88 327 50 191 204 228 197 208 237 326 100 32 241 177 271 270 226 264 254 228 238 211 263 276 278
342 349 356 0 5 16 37 29 8 356 354 356 63 283 313 335 323 8 49 292 196 292 295 305 271 252 254 235 194 176 161 142 110 264 329 326 298 233 195 189 185 200 190 238
329 337 348 359 5 10 19 16 5 1 294 9 258 329 331 325 340 263 307 19 32 305 315 288 270 269 276 277 259 195 153 129 134 225 4 235 241 286 232 219 232 233 241 177
313 322 331 345 357 2 356 8 11 352 307 289 309 333 319 327 320 277 267 282 330 321 328 37 8 336 6 350 32 210 174 136 136 164 182 286 297 77 101 168 259 198 243 200
299 303 316 323 337 346 345 331 355 341 320 256 293 325 326 283 314 335 301 323 335 330 81 76 141 257 251 314 343 84 77 72 121 120 158 200 236 277 249 161 261 214 208 204
282 289 293 303 310 325 334 317 329 330 288 273 244 206 251 280 212 235 310 338 326 1 81 125 173 241 212 258 264 318 359 24 177 167 231 292 261 297 42 145 239 167 194 233
275 275 279 284 286 292 308 310 303 326 278 279 270 266 222 212 203 170 336 352 322 23 62 137 224 190 257 318 243 200 197 157 212 122 180 263 337 338 248 234 301 245 337 327
272 270 272 271 270 272 279 289 289 298 281 274 283 279 268 263 268 261 257 239 229 203 95 186 114 280 8 93 289 310 275 189 196 176 218 243 280 161 344 325 300 344 326 310
273 266 265 263 262 259 261 269 286 302 296 299 282 293 221 229 238 248 204 221 217 199 190 157 156 227 133 208 244 275 300 166 193 9 266 239 215 267 254 249 267 302 308 311
268 266 261 261 256 250 251 257 266 281 288 280 285 280 242 255 254 289 226 202 173 194 214 185 146 176 188 216 243 220 214 131 215 261 276 266 269 276 269 268 279 295 286 281
268 263 258 259 256 245 245 254 256 256 233 270 296 297 288 256 258 212 226 232 242 244 197 155 212 195 151 214 16 258 193 208 188 248 267 257 276 287 266 285 267 295 269 275
270 265 259 253 248 235 242 276 254 236 223 269 309 298 279 267 267 258 253 235 235 215 198 206 218 203 181 181 233 254 251 253 256 251 280 285 289 289 285 276 268 276 253 256
283 273 264 247 229 198 183 207 202 184 184 235 293 282 266 266 282 228 224 234 209 211 204 207 198 196 193 171 245 265 275 278 282 282 284 284 289 290 302 294 275 254 258 257
287 287 262 245 217 210 214 206 176 176 205 229 255 271 309 253 262 217 172 190 199 211 211 180 177 158 195 246 240 262 270 283 290 291 296 298 297 294 298 298 277 277 259 264
296 285 144 148 178 198 217 214 221 215 226 237 200 225 257 321 14 308 184 163 163 210 210 219 160 187 223 231 257 276 293 287 283 290 295 299 310 317 305 301 293 288 270 267
225 142 160 198 199 186 177 194 190 205 223 242 243 232 258 7 22 37 2 350 246 247 246 141 168 248 109 30 57 90 73 47 29 25 358 347 339 336 331 327 318 310 298 285
167 179 220 190 174 174 182 183 193 188 233 213 231 225 239 259 144 244 302 227 232 250 254 167 226 265 175 118 110 90 56 17 350 337 326 319 312 306 302 296 293 292 291 281
196 214 178 183 189 201 185 198 184 207 223 206 193 218 209 220 224 168 219 197 146 245 150 154 254 244 162 154 126 4 343 330 325 324 317 311 305 300 297 291 288 285 281 272
188 238 183 183 197 218 199 191 196 211 206 197 193 198 175 181 190 196 171 203 227 124 184 225 224 179 166 93 350 332 330 333 331 325 323 319 315 312 302 295 295 289 276 267
209 222 213 203 199 227 203 199 179 203 198 156 273 214 183 185 166 215 188 218 102 247 242 236 218 182 140 347 336 324 332 340 335 328 323 317 319 315 315 307 301 285 285 279
243 234 212 217 231 240 237 249 243 248 281 282 234 207 194 173 199 189 126 147 238 205 226 223 179 176 318 338 338 335 332 335 331 325 325 327 324 325 310 312 310 298 288 277
239 238 253 271 297 257 248 256 256 268 245 226 220 171 174 178 145 166 216 175 214 235 206 173 182 233 325 333 336 334 331 330 328 323 323 324 327 322 325 327 319 306 305 291
240 240 257 273 287 271 331 309 46 4 335 204 179 209 188 117 160 240 183 205 219 164 171 202 265 298 314 331 333 330 330 328 325 325 326 332 334 331 333 328 338 326 316 320